Change the Weather History Date:

Thursday, November 29, 2012

  Actual Average Record
Temperature  
Mean Temperature 51 °F 46 °F  
Max Temperature 67 °F 56 °F 78 °F (1927)
Min Temperature 35 °F 35 °F 8 °F (1976)
Degree Days  
Heating Degree Days 14 19  
Month to date heating degree days 346 392  
Since 1 July heating degree days 506 546  
Moisture  
Dew Point 33 °F    
Average Humidity 58    
Maximum Humidity 89    
Minimum Humidity 26    
Precipitation  
Precipitation 0.00 in 0.14 in 1.69 in (2006)
Month to date precipitation 0.29 4.30  
Year to date precipitation 31.19 42.03  
Sea Level Pressure  
Sea Level Pressure 30.21 in    
Wind  
Wind Speed 6 mph (ENE)    
Max Wind Speed 12 mph    
Max Gust Speed 14 mph    
Visibility 10 miles    
Events      
T = Trace of Precipitation, MM = Missing Value Source: NWS Daily Summary

Daily Weather History Graph

Daily Weather History Graph

Search for Another Location

Airport or City:

Trip Planner

Search our weather history database for the weather conditions in past years. The results will help you decide how hot, cold, wet, or windy it might be!

Date:

Astronomy

Nov. 29, 2012 Rise Set
Actual Time 7:06 AM CST 5:05 PM CST
Civil Twilight 6:38 AM CST 5:33 PM CST
Nautical Twilight 6:07 AM CST 6:04 PM CST
Astronomical Twilight 5:36 AM CST 6:35 PM CST
Moon 6:08 PM CST (11/29) 7:53 AM CST (11/29)
Length of Visible Light 10h 54m
Length of Day
9h 58m
Full, 99% of the Moon is Illuminated
Nov 29
Full
Dec 6
Last Quarter
Dec 13
New
Dec 19
First Quarter
Dec 28
Full

Hourly Weather History & Observations

Time (CST) Temp. Windchill Dew Point Humidity Pressure Visibility Wind Dir Wind Speed Gust Speed Precip Events Conditions
12:53 AM 39.9 °F 36.7 °F 33.1 °F 77% 30.27 in 10.0 mi NE 4.6 mph - N/A   Clear
1:53 AM 39.9 °F 36.7 °F 33.1 °F 77% 30.27 in 10.0 mi NE 4.6 mph - N/A   Clear
2:53 AM 39.0 °F 36.8 °F 33.1 °F 79% 30.28 in 10.0 mi NE 3.5 mph - N/A   Clear
3:53 AM 37.0 °F 33.3 °F 32.0 °F 82% 30.27 in 10.0 mi NE 4.6 mph - N/A   Clear
4:53 AM 37.0 °F 33.3 °F 32.0 °F 82% 30.27 in 10.0 mi NE 4.6 mph - N/A   Clear
5:53 AM 37.9 °F 35.5 °F 33.1 °F 83% 30.27 in 10.0 mi ENE 3.5 mph - N/A   Clear
6:53 AM 36.0 °F 32.1 °F 32.0 °F 86% 30.29 in 10.0 mi NE 4.6 mph - N/A   Clear
7:53 AM 37.9 °F - 33.1 °F 83% 30.29 in 10.0 mi Calm Calm - N/A   Clear
8:53 AM 43.0 °F 37.7 °F 35.1 °F 74% 30.28 in 10.0 mi ENE 9.2 mph - N/A   Clear
9:53 AM 46.9 °F - 36.0 °F 66% 30.28 in 10.0 mi ENE 5.8 mph - N/A   Clear
10:53 AM 53.1 °F - 35.1 °F 50% 30.25 in 10.0 mi ENE 6.9 mph - N/A   Clear
11:53 AM 59.0 °F - 35.1 °F 41% 30.22 in 10.0 mi East 4.6 mph - N/A   Clear
12:53 PM 63.0 °F - 35.1 °F 35% 30.19 in 10.0 mi East 4.6 mph - N/A   Clear
1:53 PM 66.0 °F - 36.0 °F 33% 30.16 in 10.0 mi ENE 11.5 mph - N/A   Clear
2:53 PM 64.9 °F - 36.0 °F 34% 30.14 in 10.0 mi ENE 9.2 mph - N/A   Clear
3:53 PM 66.9 °F - 34.0 °F 30% 30.13 in 10.0 mi ENE 5.8 mph - N/A   Clear
4:53 PM 64.0 °F - 28.0 °F 26% 30.12 in 10.0 mi SSE 6.9 mph - N/A   Clear
5:53 PM 60.1 °F - 27.0 °F 28% 30.12 in 10.0 mi ESE 8.1 mph - N/A   Clear
6:53 PM 57.0 °F - 26.1 °F 30% 30.12 in 10.0 mi East 4.6 mph - N/A   Clear
7:53 PM 51.1 °F - 27.0 °F 39% 30.12 in 10.0 mi ENE 6.9 mph - N/A   Clear
8:53 PM 50.0 °F - 28.9 °F 44% 30.13 in 10.0 mi ENE 6.9 mph - N/A   Clear
9:53 PM 48.0 °F - 30.9 °F 52% 30.14 in 10.0 mi ENE 4.6 mph - N/A   Clear
10:53 PM 46.9 °F - 33.1 °F 59% 30.16 in 10.0 mi NE 6.9 mph - N/A   Clear
11:53 PM 46.0 °F 43.1 °F 33.1 °F 61% 30.17 in 10.0 mi NE 5.8 mph - N/A   Clear